Showing default

OPS 9341 (IDSCS 19), 3284

Orbit data source: Space-Track

OPS 9341 (IDSCS 19), 3284 is a payload satellite owned by SAMSO (US) in GEO that was launched on Thu, 13 Jun 1968 UTC via a TITAN IIIC launch vehicle from the Air Force Eastern Test Range (AFETR). Payload-class satellites include a variety of spacecraft equipped with specific instruments for various scientific and technological missions. These include communications satellites like Starlink; space stations such as the ISS; scientific satellites like the Hubble; Earth observation satellites from companies like Planet Labs, Umbra, and HawkEye 360; GPS; miniature CubeSats for education and research; and military/defense satellites.

Loading next visibility...
Identifier
3284, 1968-050A
Orbit
GEO
Country
Flag of USUS
Related business
Manufacturer
Philco-Ford
Mission
Non-operational spacecraft
Bus & Motor
IDCSP, Unknown motor
Mass
45 kg wet, 45 kg dry
Launch date (UTC)
1968-06-13 (58 years ago)
Launch vehicle
TITAN IIIC
Launch site
Air Force Eastern Test Range (AFETR)
Object type
Payload
Rocket body
Debris
Shape & HBR
POLY, 1.1 m
Radar Cross Section
Medium (>0.1 m² and <1 m²)

Expand to show TLE details & history
Last TLE update: 1 month ago

TLE from 1 month ago
0 OPS 9341 (IDSCS 19)
1  3284U 68050A   26213.21808022 -.00000113  00000-0  00000+0 0  9998
2  3284   7.3005  51.2431 0014031 153.7359  79.2323  1.07854941 50697
Epoch: 2026-08-01T05:14Z
TLE epoch observation values (Epoch: 2026-08-01T05:14:02.131Z)
Latitude
-5.84081°
Longitude
-104.19873°
Altitude
33,776.503 km
Speed
3.151 km/s
True Right ascension
18h 56m 34s
True Declination
-5° 50' 05"
Sunlit
Object was in daylight at epoch
Visualization orbit readout
Latitude
Unknown
Longitude
Unknown
Altitude
Unknown
Speed
Unknown
Apparent Right ascension
Unknown
Apparent Declination
Unknown
Sunlit
N/A
Visualization observer readout
Local Sidereal Time
03:42:27
Azimuth
Unknown
Elevation
Unknown
Doppler factor
Unknown
Orbital elements
Apogee altitude
33,843.763 km
Perigee altitude
33,731.05 km
Semi-major axis
40,165.543 km
Eccentricity
0.0014
Inclination
7.3005°
RAAN
51.2431°
Arg. of periapsis
153.7359°
True anomaly
79.3903°
Mean anomaly
79.2323°
Eccentric anomaly
79.3113°
Mean motion
0.26963 °/min
Orbital period
1,335.18 mins
BSTAR
0
Loading maneuver chart data...
Computing Atmospheric mass density...
Loading historical data...
Loading historical data...
Loading historical data...
Loading historical data...
Loading historical data...
Loading historical data...
Loading historical data...

Documentation

Showing up to 5 results
|